Beaver Island, MI

10:20 AM EDT on September 26, 2016 (GMT -0400)
Beaver Island

Weather History for KSJX - October, 2012

Change the Weather History Date:

Saturday, October 13, 2012

  Actual Average Record
Temperature  
Mean Temperature 49 °F -  
Max Temperature 54 °F 57 °F 75 °F (1956)
Min Temperature 44 °F 41 °F 27 °F (1993)
Degree Days  
Heating Degree Days 16    
Moisture  
Dew Point 40 °F    
Average Humidity 76    
Maximum Humidity 92    
Minimum Humidity 55    
Precipitation  
Precipitation 0.00 in - - ()
Sea Level Pressure  
Sea Level Pressure 30.01 in    
Wind  
Wind Speed 6 mph (South)    
Max Wind Speed 13 mph    
Max Gust Speed 24 mph    
Visibility 8 miles    
Events Rain    
Averages and records for this station are not official NWS values.
T = Trace of Precipitation, MM = Missing Value Source: NWS Daily Summary

Daily Weather History Graph

Daily Weather History Graph

Search for Another Location

Airport or City:

Trip Planner

Search our weather history database for the weather conditions in past years. The results will help you decide how hot, cold, wet, or windy it might be!

Date:

Astronomy

Oct. 13, 2012 Rise Set
Actual Time 7:56 AM EDT 6:59 PM EDT
Civil Twilight 7:26 AM EDT 7:29 PM EDT
Nautical Twilight 6:52 AM EDT 8:03 PM EDT
Astronomical Twilight 6:17 AM EDT 8:37 PM EDT
Moon 5:41 AM EDT (10/13) 5:45 PM EDT (10/13)
Length of Visible Light 12h 02m
Length of Day
11h 02m
Waning Crescent, 5% of the Moon is Illuminated
Oct 13
Waning Crescent
Oct 15
New
Oct 21
First Quarter
Oct 29
Full
Nov 6
Last Quarter

Hourly Weather History & Observations

Time (EDT) Temp. Windchill Dew Point Humidity Pressure Visibility Wind Dir Wind Speed Gust Speed Precip Events Conditions
12:15 AM 45.5 °F 42.5 °F 32.0 °F 59% 30.29 in 10.0 mi SSW 5.8 mph - N/A   Clear
12:35 AM 45.5 °F 42.5 °F 32.0 °F 59% 30.28 in 10.0 mi South 5.8 mph - N/A   Clear
12:55 AM 44.2 °F 42.7 °F 32.0 °F 62% 30.27 in 10.0 mi South 3.5 mph - N/A   Scattered Clouds
1:15 AM 44.6 °F 42.2 °F 32.0 °F 61% 30.26 in 10.0 mi South 4.6 mph - N/A   Mostly Cloudy
1:55 AM 44.2 °F - 32.9 °F 64% 30.26 in 10.0 mi Calm Calm - N/A   Scattered Clouds
2:15 AM 44.6 °F 42.2 °F 33.1 °F 64% 30.25 in 10.0 mi South 4.6 mph - N/A   Scattered Clouds
2:35 AM 44.4 °F 42.9 °F 32.2 °F 62% 30.24 in 10.0 mi SSE 3.5 mph - N/A   Scattered Clouds
2:55 AM 44.2 °F 42.7 °F 31.8 °F 62% 30.24 in 10.0 mi SSE 3.5 mph - N/A   Clear
3:15 AM 44.1 °F 42.5 °F 32.0 °F 63% 30.23 in 10.0 mi SSE 3.5 mph - N/A   Scattered Clouds
3:35 AM 44.6 °F 42.2 °F 31.5 °F 60% 30.23 in 10.0 mi SSE 4.6 mph - N/A   Scattered Clouds
3:55 AM 45.9 °F 43.6 °F 30.4 °F 55% 30.21 in 10.0 mi South 4.6 mph - N/A   Mostly Cloudy
4:15 AM 45.5 °F 42.5 °F 30.6 °F 56% 30.21 in 10.0 mi South 5.8 mph - N/A   Overcast
4:35 AM 44.8 °F 42.4 °F 30.4 °F 57% 30.20 in 10.0 mi South 4.6 mph - N/A   Scattered Clouds
4:55 AM 44.4 °F 42.9 °F 30.4 °F 58% 30.20 in 10.0 mi South 3.5 mph - N/A   Scattered Clouds
5:15 AM 44.8 °F 42.4 °F 31.1 °F 59% 30.19 in 10.0 mi South 4.6 mph - N/A   Scattered Clouds
5:36 AM 45.5 °F 41.3 °F 31.1 °F 57% 30.20 in 10.0 mi South 8.1 mph - N/A   Scattered Clouds
5:55 AM 45.5 °F 44.2 °F 30.9 °F 57% 30.20 in 10.0 mi SSE 3.5 mph - N/A   Scattered Clouds
6:15 AM 45.5 °F 41.3 °F 31.1 °F 57% 30.19 in 10.0 mi South 8.1 mph - N/A   Mostly Cloudy
6:55 AM 46.4 °F 43.5 °F 32.0 °F 57% 30.16 in 10.0 mi SSE 5.8 mph - N/A   Overcast
7:15 AM 46.9 °F - 32.2 °F 57% 30.16 in 10.0 mi South 5.8 mph - N/A   Overcast
7:35 AM 47.3 °F - 32.0 °F 55% 30.15 in 10.0 mi SSE 4.6 mph - N/A   Mostly Cloudy
7:55 AM 47.5 °F - 32.2 °F 55% 30.14 in 10.0 mi South 4.6 mph - N/A   Scattered Clouds
8:15 AM 48.2 °F - 32.5 °F 55% 30.13 in 10.0 mi South 8.1 mph - N/A   Mostly Cloudy
8:35 AM 46.8 °F - 34.7 °F 63% 30.13 in 10.0 mi South 6.9 mph 20.7 mph N/A Rain Rain
8:55 AM 46.6 °F - 36.0 °F 67% 30.12 in 10.0 mi South 10.4 mph - N/A Rain Light Rain
9:15 AM 46.0 °F 41.0 °F 37.0 °F 71% 30.11 in 10.0 mi SSE 10.4 mph - N/A   Light Drizzle
9:55 AM 45.9 °F 40.0 °F 35.6 °F 67% 30.09 in 10.0 mi South 12.7 mph 19.6 mph N/A   Light Drizzle
10:35 AM 45.5 °F 40.8 °F 38.8 °F 78% 30.06 in 10.0 mi South 9.2 mph 24.2 mph N/A Rain Light Rain
10:55 AM 45.5 °F 41.3 °F 40.1 °F 81% 30.05 in 10.0 mi South 8.1 mph 16.1 mph N/A   Overcast
11:35 AM 45.5 °F 40.3 °F 40.5 °F 83% 30.01 in 10.0 mi SSE 10.4 mph 17.3 mph N/A   Overcast
11:55 AM 44.8 °F 39.0 °F 40.6 °F 85% 29.99 in 7.0 mi SSE 11.5 mph 19.6 mph N/A   Drizzle
12:15 PM 44.8 °F 39.0 °F 40.5 °F 85% 29.98 in 5.0 mi SE 11.5 mph 17.3 mph N/A Rain Rain
12:35 PM 44.6 °F 38.8 °F 40.3 °F 85% 29.97 in 7.0 mi SE 11.5 mph 19.6 mph N/A   Drizzle
12:56 PM 44.6 °F 38.8 °F 41.0 °F 87% 29.96 in 4.0 mi SE 11.5 mph 20.7 mph N/A Rain Light Rain
1:35 PM 45.5 °F 41.3 °F 42.3 °F 88% 29.93 in 7.0 mi SE 8.1 mph - N/A Rain Light Rain
1:55 PM 45.7 °F 40.6 °F 42.8 °F 90% 29.91 in 4.0 mi SSE 10.4 mph 17.3 mph N/A Rain Light Rain
2:15 PM 46.6 °F - 43.9 °F 90% 29.90 in 3.0 mi SSE 8.1 mph - N/A Rain Heavy Rain
2:35 PM 47.3 °F - 44.6 °F 90% 29.88 in 4.0 mi SSE 8.1 mph - N/A Rain Rain
2:55 PM 48.2 °F - 45.1 °F 89% 29.86 in 5.0 mi SSE 9.2 mph - N/A Rain Rain
3:16 PM 48.2 °F - 45.3 °F 90% 29.84 in 3.0 mi SSE 4.6 mph - N/A Rain Light Rain
3:35 PM 48.2 °F - 45.5 °F 90% 29.83 in 10.0 mi South 6.9 mph - N/A   Overcast
3:55 PM 48.6 °F - 45.7 °F 90% 29.82 in 2.5 mi South 4.6 mph - N/A   Overcast
4:35 PM 49.3 °F - 46.6 °F 90% 29.80 in 3.0 mi South 5.8 mph - N/A   Drizzle
4:55 PM 49.3 °F - 46.6 °F 90% 29.80 in 10.0 mi South 3.5 mph - N/A   Drizzle
5:15 PM 49.3 °F - 46.4 °F 90% 29.78 in 7.0 mi South 6.9 mph - N/A Rain Light Rain
5:35 PM 49.5 °F - 46.8 °F 90% 29.78 in 7.0 mi South 3.5 mph - N/A Rain Light Rain
5:55 PM 50.0 °F - 47.1 °F 90% 29.78 in 5.0 mi South 4.6 mph - N/A Rain Rain
6:15 PM 50.9 °F - 48.2 °F 90% 29.77 in 7.0 mi South 5.8 mph - N/A Rain Rain
6:35 PM 51.8 °F - 49.1 °F 90% 29.76 in 7.0 mi South 8.1 mph - N/A Rain Light Rain
6:55 PM 52.0 °F - 49.1 °F 90% 29.76 in 10.0 mi SSW 8.1 mph - N/A Rain Rain
7:15 PM 52.3 °F - 49.6 °F 91% 29.76 in 7.0 mi SSW 6.9 mph - N/A Rain Rain
7:35 PM 52.7 °F - 50.0 °F 91% 29.76 in 5.0 mi SSW 10.4 mph - N/A Rain Rain
8:35 PM 54.5 °F - 52.0 °F 91% 29.75 in 7.0 mi WSW 10.4 mph - N/A Rain Rain
8:55 PM 53.6 °F - 51.1 °F 91% 29.75 in 10.0 mi WSW 12.7 mph - N/A Rain Light Rain
9:35 PM 53.1 °F - 50.4 °F 91% 29.76 in 10.0 mi WSW 11.5 mph 17.3 mph N/A Rain Light Rain
10:15 PM 52.7 °F - 50.0 °F 91% 29.77 in 5.0 mi West 10.4 mph - N/A   Drizzle
10:35 PM 52.3 °F - 50.0 °F 92% 29.76 in 4.0 mi WSW 8.1 mph - N/A   Drizzle
10:55 PM 52.3 °F - 50.0 °F 92% 29.76 in 5.0 mi West 6.9 mph - N/A   Drizzle
11:14 PM 52.2 °F - 49.8 °F 92% 29.76 in 2.5 mi West 4.6 mph - N/A   Drizzle